| time (UTC) | temp F | wind direction | speed MPH | gust MPH | rain 1hr in | rain 24hr in | rain mn in | humidity % | barometer mb |
| 20260906215344 | 99 | 132 | 8.0 | 13.0 | 0.00 | 0.00 | 0.00 | 39 | 988.6 |
| 20260906214857 | 97 | 167 | 7.0 | 13.0 | 0.00 | 0.00 | 0.00 | 41 | 988.8 |
| 20260906214844 | 98 | 119 | 6.0 | 13.0 | 0.00 | 0.00 | 0.00 | 40 | 988.6 |
| 20260906213836 | 98 | 117 | 8.0 | 16.0 | 0.00 | 0.00 | 0.00 | 40 | 988.8 |
| 20260906213332 | 98 | 111 | 8.0 | 16.0 | 0.00 | 0.00 | 0.00 | 40 | 988.9 |
| 20260906212834 | 98 | 167 | 8.0 | 14.0 | 0.00 | 0.00 | 0.00 | 41 | 988.9 |
| 20260906212332 | 98 | 141 | 7.0 | 13.0 | 0.00 | 0.00 | 0.00 | 41 | 989.0 |
| 20260906211832 | 97 | 111 | 7.0 | 12.0 | 0.00 | 0.00 | 0.00 | 41 | 989.1 |
| 20260906211331 | 98 | 147 | 10.0 | 17.0 | 0.00 | 0.00 | 0.00 | 41 | 989.2 |
| 20260906210835 | 99 | 151 | 10.0 | 17.0 | 0.00 | 0.00 | 0.00 | 40 | 989.2 |
| 20260906210332 | 99 | 128 | 8.0 | 14.0 | 0.00 | 0.00 | 0.00 | 40 | 989.2 |
| 20260906205832 | 99 | 137 | 8.0 | 13.0 | 0.00 | 0.00 | 0.00 | 41 | 989.4 |
| 20260906205331 | 99 | 134 | 8.0 | 15.0 | 0.00 | 0.00 | 0.00 | 40 | 989.5 |
| 20260906204832 | 99 | 103 | 8.0 | 17.0 | 0.00 | 0.00 | 0.00 | 42 | 989.6 |
| 20260906204333 | 99 | 167 | 8.0 | 17.0 | 0.00 | 0.00 | 0.00 | 41 | 989.8 |
| 20260906203833 | 98 | 84 | 8.0 | 14.0 | 0.00 | 0.00 | 0.00 | 41 | 989.6 |
| 20260906203333 | 98 | 136 | 10.0 | 14.0 | 0.00 | 0.00 | 0.00 | 40 | 989.7 |
| 20260906203310 | 99 | 126 | 10.0 | 18.0 | 0.00 | 0.00 | 0.00 | 40 | 989.8 |
| 20260906202333 | 98 | 101 | 9.0 | 18.0 | 0.00 | 0.00 | 0.00 | 41 | 990.0 |
| 20260906202307 | 99 | 171 | 6.0 | 15.0 | 0.00 | 0.00 | 0.00 | 41 | 990.0 |
| 20260906201803 | 97 | 158 | 6.0 | 15.0 | 0.00 | 0.00 | 0.00 | 41 | 990.0 |
| 20260906200831 | 98 | 124 | 8.0 | 15.0 | 0.00 | 0.00 | 0.00 | 41 | 990.0 |
| 20260906200331 | 98 | 133 | 8.0 | 14.0 | 0.00 | 0.00 | 0.00 | 41 | 990.1 |
| 20260906200313 | 98 | 103 | 8.0 | 13.0 | 0.00 | 0.00 | 0.00 | 40 | 990.1 |
| 20260906195332 | 98 | 114 | 10.0 | 17.0 | 0.00 | 0.00 | 0.00 | 41 | 990.2 |
| 20260906194830 | 99 | 142 | 10.0 | 17.0 | 0.00 | 0.00 | 0.00 | 41 | 990.3 |
| 20260906194730 | 98 | 163 | 9.0 | 17.0 | 0.00 | 0.00 | 0.00 | 42 | 990.5 |
| 20260906194721 | 98 | 145 | 8.0 | 17.0 | 0.00 | 0.00 | 0.00 | 42 | 990.4 |
| 20260906194508 | 98 | 132 | 8.0 | 16.0 | 0.00 | 0.00 | 0.00 | 41 | 990.3 |
| 20260906192823 | 97 | 108 | 9.0 | 17.0 | 0.00 | 0.00 | 0.00 | 42 | 990.5 |
| 20260906192809 | 97 | 107 | 9.0 | 17.0 | 0.00 | 0.00 | 0.00 | 42 | 990.5 |
| 20260906191825 | 98 | 144 | 10.0 | 16.0 | 0.00 | 0.00 | 0.00 | 41 | 990.6 |
| 20260906191325 | 98 | 102 | 10.0 | 15.0 | 0.00 | 0.00 | 0.00 | 42 | 990.7 |
| 20260906191253 | 98 | 148 | 9.0 | 15.0 | 0.00 | 0.00 | 0.00 | 42 | 990.6 |
| 20260906190324 | 98 | 111 | 8.0 | 15.0 | 0.00 | 0.00 | 0.00 | 42 | 990.7 |
| 20260906185823 | 97 | 93 | 9.0 | 16.0 | 0.00 | 0.00 | 0.00 | 42 | 990.7 |
| 20260906185804 | 97 | 119 | 10.0 | 15.0 | 0.00 | 0.00 | 0.00 | 43 | 990.8 |
| 20260906184818 | 97 | 118 | 10.0 | 17.0 | 0.00 | 0.00 | 0.00 | 42 | 990.8 |
| 20260906184751 | 98 | 130 | 9.0 | 17.0 | 0.00 | 0.00 | 0.00 | 42 | 991.0 |
| 20260906184301 | 97 | 123 | 11.0 | 19.0 | 0.00 | 0.00 | 0.00 | 42 | 990.9 |
| 20260906183317 | 97 | 113 | 11.0 | 19.0 | 0.00 | 0.00 | 0.00 | 43 | 991.1 |
| 20260906182820 | 98 | 83 | 10.0 | 16.0 | 0.00 | 0.00 | 0.00 | 43 | 991.0 |
| 20260906182317 | 98 | 99 | 10.0 | 17.0 | 0.00 | 0.00 | 0.00 | 42 | 991.0 |
| 20260906182241 | 96 | 90 | 10.0 | 17.0 | 0.00 | 0.00 | 0.00 | 44 | 991.1 |
| 20260906181311 | 96 | 105 | 10.0 | 17.0 | 0.00 | 0.00 | 0.00 | 43 | 991.1 |
| 20260906180803 | 97 | 117 | 10.0 | 17.0 | 0.00 | 0.00 | 0.00 | 44 | 991.3 |
| 20260906180303 | 97 | 159 | 10.0 | 15.0 | 0.00 | 0.00 | 0.00 | 44 | 991.3 |
| 20260906175804 | 97 | 184 | 10.0 | 18.0 | 0.00 | 0.00 | 0.00 | 44 | 991.4 |
| 20260906175306 | 97 | 88 | 11.0 | 18.0 | 0.00 | 0.00 | 0.00 | 45 | 991.4 |
| 20260906174802 | 96 | 83 | 11.0 | 16.0 | 0.00 | 0.00 | 0.00 | 45 | 991.5 |
| 20260906174303 | 96 | 102 | 11.0 | 17.0 | 0.00 | 0.00 | 0.00 | 45 | 991.7 |
| 20260906173804 | 96 | 110 | 11.0 | 17.0 | 0.00 | 0.00 | 0.00 | 45 | 991.7 |
| 20260906173303 | 96 | 101 | 9.0 | 15.0 | 0.00 | 0.00 | 0.00 | 45 | 991.7 |
| 20260906172803 | 95 | 121 | 9.0 | 14.0 | 0.00 | 0.00 | 0.00 | 46 | 991.7 |
| 20260906172305 | 96 | 92 | 9.0 | 15.0 | 0.00 | 0.00 | 0.00 | 46 | 991.9 |
| 20260906171802 | 96 | 131 | 10.0 | 19.0 | 0.00 | 0.00 | 0.00 | 46 | 991.7 |
| 20260906171300 | 96 | 129 | 11.0 | 19.0 | 0.00 | 0.00 | 0.00 | 46 | 991.9 |
| 20260906170759 | 96 | 146 | 8.0 | 19.0 | 0.00 | 0.00 | 0.00 | 45 | 992.0 |
| 20260906170258 | 95 | 171 | 7.0 | 10.0 | 0.00 | 0.00 | 0.00 | 47 | 991.9 |
| 20260906170211 | 95 | 150 | 7.0 | 8.0 | 0.00 | 0.00 | 0.00 | 48 | 992.1 |
| 20260906165700 | 94 | 150 | 7.0 | 10.0 | 0.00 | 0.00 | 0.00 | 48 | 992.0 |
| 20260906164753 | 94 | 113 | 7.0 | 14.0 | 0.00 | 0.00 | 0.00 | 48 | 992.0 |
| 20260906164252 | 95 | 96 | 7.0 | 14.0 | 0.00 | 0.00 | 0.00 | 49 | 992.0 |
| 20260906164228 | 94 | 173 | 8.0 | 14.0 | 0.00 | 0.00 | 0.00 | 48 | 992.2 |
| 20260906163956 | 93 | 91 | 8.0 | 12.0 | 0.00 | 0.00 | 0.00 | 51 | 992.2 |
| 20260906162751 | 94 | 138 | 7.0 | 14.0 | 0.00 | 0.00 | 0.00 | 49 | 992.2 |
| 20260906162251 | 94 | 182 | 7.0 | 12.0 | 0.00 | 0.00 | 0.00 | 50 | 992.1 |
| 20260906161748 | 94 | 78 | 6.0 | 12.0 | 0.00 | 0.00 | 0.00 | 51 | 992.0 |
| 20260906161245 | 93 | 169 | 5.0 | 11.0 | 0.00 | 0.00 | 0.00 | 49 | 992.1 |
| 20260906160745 | 93 | 128 | 4.0 | 9.0 | 0.00 | 0.00 | 0.00 | 52 | 992.2 |
| 20260906160243 | 92 | 120 | 5.0 | 11.0 | 0.00 | 0.00 | 0.00 | 53 | 992.1 |
| 20260906155741 | 92 | 94 | 6.0 | 11.0 | 0.00 | 0.00 | 0.00 | 53 | 992.1 |
| 20260906155241 | 92 | 105 | 6.0 | 9.0 | 0.00 | 0.00 | 0.00 | 52 | 992.0 |
| 20260906154743 | 92 | 91 | 6.0 | 13.0 | 0.00 | 0.00 | 0.00 | 53 | 992.0 |
| 20260906154238 | 92 | 99 | 6.0 | 13.0 | 0.00 | 0.00 | 0.00 | 51 | 992.1 |
| 20260906153745 | 92 | 148 | 5.0 | 11.0 | 0.00 | 0.00 | 0.00 | 54 | 992.1 |
| 20260906153721 | 91 | 53 | 4.0 | 11.0 | 0.00 | 0.00 | 0.00 | 55 | 992.0 |
| 20260906152742 | 90 | 70 | 4.0 | 7.0 | 0.00 | 0.00 | 0.00 | 57 | 992.0 |
| 20260906152240 | 90 | 96 | 3.0 | 9.0 | 0.00 | 0.00 | 0.00 | 58 | 991.9 |
| 20260906151741 | 90 | 84 | 3.0 | 9.0 | 0.00 | 0.00 | 0.00 | 59 | 991.9 |
| 20260906151251 | 89 | 73 | 4.0 | 8.0 | 0.00 | 0.00 | 0.00 | 60 | 991.6 |
| 20260906151236 | 90 | 40 | 3.0 | 7.0 | 0.00 | 0.00 | 0.00 | 59 | 991.7 |
| 20260906150232 | 89 | 82 | 4.0 | 8.0 | 0.00 | 0.00 | 0.00 | 61 | 991.7 |
| 20260906145734 | 88 | 66 | 3.0 | 7.0 | 0.00 | 0.00 | 0.00 | 63 | 991.6 |
| 20260906145233 | 88 | 85 | 3.0 | 7.0 | 0.00 | 0.00 | 0.00 | 62 | 991.5 |
| 20260906144732 | 88 | 96 | 2.0 | 4.0 | 0.00 | 0.00 | 0.00 | 63 | 991.6 |
| 20260906144706 | 88 | 65 | 2.0 | 5.0 | 0.00 | 0.00 | 0.00 | 63 | 991.5 |
| 20260906144201 | 87 | 58 | 3.0 | 5.0 | 0.00 | 0.00 | 0.00 | 64 | 991.6 |
| 20260906143230 | 87 | 82 | 3.0 | 5.0 | 0.00 | 0.00 | 0.00 | 65 | 991.6 |
| 20260906142721 | 86 | 65 | 3.0 | 5.0 | 0.00 | 0.00 | 0.00 | 66 | 991.6 |
| 20260906142216 | 85 | 169 | 3.0 | 6.0 | 0.00 | 0.00 | 0.00 | 67 | 991.6 |
| 20260906142051 | 85 | 119 | 3.0 | 5.0 | 0.00 | 0.00 | 0.00 | 69 | 991.6 |
| 20260906141846 | 85 | 148 | 3.0 | 6.0 | 0.00 | 0.00 | 0.00 | 66 | 991.6 |
| 20260906141402 | 85 | 103 | 3.0 | 6.0 | 0.00 | 0.00 | 0.00 | 69 | 991.6 |
| 20260906140206 | 84 | 146 | 3.0 | 6.0 | 0.00 | 0.00 | 0.00 | 70 | 991.6 |
| 20260906135655 | 84 | 152 | 3.0 | 6.0 | 0.00 | 0.00 | 0.00 | 70 | 991.5 |
| 20260906135201 | 84 | 123 | 4.0 | 7.0 | 0.00 | 0.00 | 0.00 | 71 | 991.6 |
| 20260906134657 | 83 | 144 | 4.0 | 7.0 | 0.00 | 0.00 | 0.00 | 72 | 991.6 |
| 20260906134158 | 83 | 147 | 4.0 | 7.0 | 0.00 | 0.00 | 0.00 | 73 | 991.6 |
| 20260906133658 | 82 | 122 | 3.0 | 7.0 | 0.00 | 0.00 | 0.00 | 74 | 991.6 |
| 20260906133158 | 82 | 111 | 3.0 | 7.0 | 0.00 | 0.00 | 0.00 | 74 | 991.9 |
| 20260906132654 | 81 | 134 | 2.0 | 6.0 | 0.00 | 0.00 | 0.00 | 75 | 991.7 |
| 20260906132156 | 81 | 115 | 2.0 | 3.0 | 0.00 | 0.00 | 0.00 | 76 | 991.7 |
| 20260906132133 | 80 | 121 | 2.0 | 3.0 | 0.00 | 0.00 | 0.00 | 77 | 991.5 |
| 20260906131154 | 80 | 176 | 1.0 | 3.0 | 0.00 | 0.00 | 0.00 | 79 | 991.5 |
| 20260906130654 | 79 | 192 | 0.0 | 2.0 | 0.00 | 0.00 | 0.00 | 80 | 991.4 |
| 20260906130151 | 78 | 192 | 0.0 | 1.0 | 0.00 | 0.00 | 0.00 | 81 | 991.3 |
| 20260906130058 | 76 | 192 | 0.0 | 1.0 | 0.00 | 0.00 | 0.00 | 83 | 991.2 |
| 20260906125152 | 76 | 192 | 1.0 | 1.0 | 0.00 | 0.00 | 0.00 | 83 | 991.2 |
| 20260906125051 | 75 | 192 | 1.0 | 1.0 | 0.00 | 0.00 | 0.00 | 84 | 991.2 |
| 20260906124601 | 74 | 192 | 0.0 | 1.0 | 0.00 | 0.00 | 0.00 | 85 | 991.1 |
| 20260906123633 | 74 | 192 | 0.0 | 1.0 | 0.00 | 0.00 | 0.00 | 85 | 991.2 |
| 20260906123516 | 73 | 192 | 0.0 | 1.0 | 0.00 | 0.00 | 0.00 | 87 | 991.0 |
| 20260906123315 | 73 | 192 | 0.0 | 1.0 | 0.00 | 0.00 | 0.00 | 86 | 991.0 |
| 20260906122133 | 73 | 192 | 1.0 | 2.0 | 0.00 | 0.00 | 0.00 | 86 | 990.8 |
| 20260906121631 | 73 | 192 | 1.0 | 2.0 | 0.00 | 0.00 | 0.00 | 84 | 990.9 |
| 20260906121133 | 74 | 192 | 1.0 | 2.0 | 0.00 | 0.00 | 0.00 | 85 | 990.9 |
| 20260906120637 | 74 | 192 | 0.0 | 2.0 | 0.00 | 0.00 | 0.00 | 84 | 990.6 |
| 20260906120134 | 74 | 192 | 0.0 | 0.0 | 0.00 | 0.00 | 0.00 | 84 | 990.7 |
| 20260906115954 | 74 | 192 | 0.0 | 0.0 | 0.00 | 0.00 | 0.00 | 85 | 990.7 |
| 20260906115108 | 73 | 192 | 0.0 | 0.0 | 0.00 | 0.00 | 0.00 | 86 | 990.6 |
| 20260906114610 | 73 | 192 | 0.0 | 0.0 | 0.00 | 0.00 | 0.00 | 85 | 990.5 |
| 20260906114112 | 73 | 192 | 0.0 | 0.0 | 0.00 | 0.00 | 0.00 | 86 | 990.5 |
| 20260906113945 | 73 | 192 | 0.0 | 0.0 | 0.00 | 0.00 | 0.00 | 86 | 990.3 |
| 20260906113101 | 74 | 192 | 0.0 | 0.0 | 0.00 | 0.00 | 0.00 | 85 | 990.4 |
| 20260906112603 | 74 | 192 | 0.0 | 0.0 | 0.00 | 0.00 | 0.00 | 85 | 990.3 |
| 20260906112053 | 74 | 192 | 0.0 | 0.0 | 0.00 | 0.00 | 0.00 | 85 | 990.4 |
| 20260906111556 | 74 | 192 | 0.0 | 0.0 | 0.00 | 0.00 | 0.00 | 85 | 990.3 |
| 20260906111046 | 74 | 192 | 0.0 | 0.0 | 0.00 | 0.00 | 0.00 | 83 | 990.3 |
| 20260906110544 | 74 | 192 | 0.0 | 0.0 | 0.00 | 0.00 | 0.00 | 85 | 990.3 |
| 20260906110037 | 74 | 192 | 0.0 | 0.0 | 0.00 | 0.00 | 0.00 | 85 | 990.2 |
| 20260906105534 | 74 | 192 | 0.0 | 0.0 | 0.00 | 0.00 | 0.00 | 83 | 990.1 |
| 20260906105016 | 75 | 192 | 0.0 | 0.0 | 0.00 | 0.00 | 0.00 | 81 | 990.0 |
| 20260906104506 | 76 | 192 | 0.0 | 0.0 | 0.00 | 0.00 | 0.00 | 82 | 990.0 |
| 20260906104005 | 75 | 192 | 0.0 | 0.0 | 0.00 | 0.00 | 0.00 | 83 | 989.9 |
| 20260906103503 | 74 | 192 | 0.0 | 1.0 | 0.00 | 0.00 | 0.00 | 83 | 989.9 |
| 20260906102947 | 74 | 192 | 1.0 | 1.0 | 0.00 | 0.00 | 0.00 | 84 | 989.9 |
| 20260906102843 | 75 | 192 | 1.0 | 1.0 | 0.00 | 0.00 | 0.00 | 82 | 989.9 |
| 20260906101945 | 76 | 192 | 0.0 | 1.0 | 0.00 | 0.00 | 0.00 | 80 | 989.9 |
| 20260906101447 | 76 | 192 | 0.0 | 0.0 | 0.00 | 0.00 | 0.00 | 81 | 989.7 |
| 20260906100932 | 76 | 192 | 0.0 | 0.0 | 0.00 | 0.00 | 0.00 | 82 | 989.8 |
| 20260906100433 | 74 | 192 | 0.0 | 0.0 | 0.00 | 0.00 | 0.00 | 83 | 989.8 |
| 20260906100308 | 75 | 192 | 0.0 | 0.0 | 0.00 | 0.00 | 0.00 | 81 | 989.8 |
| 20260906095404 | 76 | 192 | 0.0 | 0.0 | 0.00 | 0.00 | 0.00 | 80 | 989.8 |
| 20260906094905 | 76 | 192 | 0.0 | 0.0 | 0.00 | 0.00 | 0.00 | 80 | 989.9 |
| 20260906094749 | 76 | 192 | 0.0 | 0.0 | 0.00 | 0.00 | 0.00 | 81 | 989.8 |
| 20260906093905 | 76 | 192 | 0.0 | 0.0 | 0.00 | 0.00 | 0.00 | 80 | 989.8 |
| 20260906093356 | 76 | 192 | 0.0 | 0.0 | 0.00 | 0.00 | 0.00 | 80 | 989.8 |
| 20260906092851 | 76 | 192 | 0.0 | 0.0 | 0.00 | 0.00 | 0.00 | 80 | 989.8 |
| 20260906092726 | 76 | 192 | 0.0 | 1.0 | 0.00 | 0.00 | 0.00 | 80 | 989.7 |
| 20260906091833 | 76 | 192 | 1.0 | 2.0 | 0.00 | 0.00 | 0.00 | 81 | 989.8 |
| 20260906091333 | 76 | 192 | 0.0 | 2.0 | 0.00 | 0.00 | 0.00 | 80 | 989.6 |
| 20260906090832 | 76 | 192 | 0.0 | 2.0 | 0.00 | 0.00 | 0.00 | 79 | 989.5 |
| 20260906090312 | 77 | 192 | 1.0 | 2.0 | 0.00 | 0.00 | 0.00 | 77 | 989.5 |
| 20260906090210 | 78 | 192 | 1.0 | 2.0 | 0.00 | 0.00 | 0.00 | 77 | 989.5 |
| 20260906085306 | 77 | 192 | 1.0 | 2.0 | 0.00 | 0.00 | 0.00 | 78 | 989.4 |
| 20260906085004 | 76 | 192 | 0.0 | 1.0 | 0.00 | 0.00 | 0.00 | 79 | 989.3 |
| 20260906084910 | 77 | 192 | 0.0 | 2.0 | 0.00 | 0.00 | 0.00 | 78 | 989.5 |
| 20260906084435 | 76 | 192 | 0.0 | 0.0 | 0.00 | 0.00 | 0.00 | 79 | 989.5 |
| 20260906083304 | 76 | 192 | 0.0 | 2.0 | 0.00 | 0.00 | 0.00 | 79 | 989.3 |
| 20260906082802 | 76 | 192 | 1.0 | 2.0 | 0.00 | 0.00 | 0.00 | 77 | 989.3 |
| 20260906082253 | 78 | 192 | 0.0 | 2.0 | 0.00 | 0.00 | 0.00 | 74 | 989.3 |
| 20260906082046 | 80 | 192 | 0.0 | 2.0 | 0.00 | 0.00 | 0.00 | 72 | 989.3 |
| 20260906081930 | 79 | 192 | 0.0 | 2.0 | 0.00 | 0.00 | 0.00 | 73 | 989.3 |
| 20260906080747 | 80 | 192 | 0.0 | 2.0 | 0.00 | 0.00 | 0.00 | 72 | 989.3 |
| 20260906080612 | 80 | 192 | 1.0 | 2.0 | 0.00 | 0.00 | 0.00 | 72 | 989.5 |
| 20260906080434 | 80 | 192 | 1.0 | 2.0 | 0.00 | 0.00 | 0.00 | 72 | 989.4 |
| 20260906075232 | 80 | 192 | 1.0 | 3.0 | 0.00 | 0.00 | 0.00 | 72 | 989.5 |
| 20260906074732 | 79 | 192 | 2.0 | 3.0 | 0.00 | 0.00 | 0.00 | 72 | 989.4 |
| 20260906074233 | 80 | 220 | 1.0 | 3.0 | 0.00 | 0.00 | 0.00 | 72 | 989.5 |
| 20260906073848 | 79 | 221 | 0.0 | 2.0 | 0.00 | 0.00 | 0.00 | 73 | 989.7 |
| 20260906073843 | 79 | 221 | 0.0 | 1.0 | 0.00 | 0.00 | 0.00 | 72 | 989.6 |
| 20260906073801 | 79 | 221 | 0.0 | 1.0 | 0.00 | 0.00 | 0.00 | 73 | 989.4 |
| 20260906072206 | 79 | 221 | 0.0 | 2.0 | 0.00 | 0.00 | 0.00 | 73 | 989.6 |
| 20260906071705 | 80 | 221 | 0.0 | 1.0 | 0.00 | 0.00 | 0.00 | 71 | 989.7 |
| 20260906071613 | 80 | 221 | 1.0 | 2.0 | 0.00 | 0.00 | 0.00 | 71 | 989.7 |
| 20260906070707 | 80 | 221 | 1.0 | 2.0 | 0.00 | 0.00 | 0.00 | 71 | 989.8 |
| 20260906070207 | 80 | 221 | 1.0 | 2.0 | 0.00 | 0.00 | 0.00 | 70 | 989.9 |
| 20260906065704 | 80 | 221 | 1.0 | 2.0 | 0.00 | 0.00 | 0.00 | 70 | 989.9 |
| 20260906065207 | 81 | 221 | 0.0 | 2.0 | 0.00 | 0.00 | 0.00 | 70 | 989.8 |
| 20260906064705 | 81 | 221 | 0.0 | 2.0 | 0.00 | 0.00 | 0.00 | 69 | 989.9 |
| 20260906064206 | 82 | 221 | 1.0 | 2.0 | 0.00 | 0.00 | 0.00 | 68 | 989.9 |
| 20260906063704 | 82 | 221 | 2.0 | 4.0 | 0.00 | 0.00 | 0.00 | 68 | 989.8 |
| 20260906063605 | 82 | 224 | 2.0 | 4.0 | 0.00 | 0.00 | 0.00 | 67 | 989.7 |
| 20260906062957 | 83 | 219 | 1.0 | 4.0 | 0.00 | 0.00 | 0.00 | 66 | 990.0 |
| 20260906062946 | 83 | 204 | 2.0 | 4.0 | 0.00 | 0.00 | 0.00 | 66 | 989.8 |
| 20260906062820 | 83 | 215 | 3.0 | 4.0 | 0.00 | 0.00 | 0.00 | 67 | 989.7 |
| 20260906061203 | 83 | 187 | 1.0 | 4.0 | 0.00 | 0.00 | 0.00 | 66 | 990.0 |
| 20260906060701 | 83 | 169 | 2.0 | 5.0 | 0.00 | 0.00 | 0.00 | 66 | 990.0 |
| 20260906060201 | 83 | 186 | 3.0 | 5.0 | 0.00 | 0.00 | 0.00 | 66 | 989.8 |
| 20260906055706 | 83 | 158 | 4.0 | 5.0 | 0.00 | 0.00 | 0.00 | 66 | 989.8 |
| 20260906055155 | 83 | 169 | 4.0 | 6.0 | 0.00 | 0.00 | 0.00 | 65 | 989.8 |
| 20260906054654 | 83 | 159 | 4.0 | 6.0 | 0.00 | 0.00 | 0.00 | 65 | 989.9 |
| 20260906054154 | 83 | 159 | 4.0 | 6.0 | 0.00 | 0.00 | 0.00 | 65 | 990.0 |
| 20260906054051 | 83 | 159 | 4.0 | 5.0 | 0.00 | 0.00 | 0.00 | 65 | 990.0 |
| 20260906053143 | 83 | 156 | 3.0 | 5.0 | 0.00 | 0.00 | 0.00 | 65 | 990.1 |
| 20260906052640 | 83 | 160 | 3.0 | 6.0 | 0.00 | 0.00 | 0.00 | 65 | 990.1 |
| 20260906052136 | 83 | 164 | 3.0 | 6.0 | 0.00 | 0.00 | 0.00 | 65 | 990.3 |
| 20260906051635 | 83 | 169 | 2.0 | 5.0 | 0.00 | 0.00 | 0.00 | 64 | 990.2 |
| 20260906051132 | 84 | 169 | 3.0 | 5.0 | 0.00 | 0.00 | 0.00 | 64 | 990.3 |
| 20260906050620 | 84 | 159 | 3.0 | 5.0 | 0.00 | 0.00 | 0.00 | 64 | 990.1 |
| 20260906050121 | 84 | 165 | 2.0 | 5.0 | 0.00 | 0.00 | 0.00 | 63 | 990.1 |
| 20260906045613 | 84 | 167 | 2.0 | 5.0 | 0.00 | 0.00 | 0.00 | 63 | 990.1 |
| 20260906045511 | 84 | 175 | 3.0 | 4.0 | 0.00 | 0.00 | 0.00 | 63 | 990.1 |
| 20260906044551 | 84 | 167 | 3.0 | 4.0 | 0.00 | 0.00 | 0.00 | 62 | 990.2 |
| 20260906044047 | 84 | 167 | 3.0 | 5.0 | 0.00 | 0.00 | 0.00 | 63 | 990.1 |
| 20260906043533 | 84 | 169 | 2.0 | 5.0 | 0.00 | 0.00 | 0.00 | 62 | 990.1 |
| 20260906043034 | 84 | 201 | 1.0 | 3.0 | 0.00 | 0.00 | 0.00 | 62 | 990.2 |
| 20260906042533 | 85 | 202 | 1.0 | 2.0 | 0.00 | 0.00 | 0.00 | 61 | 990.2 |
| 20260906042028 | 85 | 202 | 1.0 | 3.0 | 0.00 | 0.00 | 0.00 | 60 | 990.2 |
| 20260906041527 | 86 | 202 | 2.0 | 4.0 | 0.00 | 0.00 | 0.00 | 60 | 990.2 |
| 20260906041026 | 86 | 202 | 2.0 | 5.0 | 0.00 | 0.00 | 0.00 | 59 | 990.1 |
| 20260906040919 | 86 | 170 | 2.0 | 6.0 | 0.00 | 0.00 | 0.00 | 59 | 990.1 |
| 20260906040005 | 87 | 196 | 2.0 | 6.0 | 0.00 | 0.00 | 0.00 | 59 | 990.0 |
| 20260906035506 | 87 | 172 | 4.0 | 7.0 | 0.00 | 0.00 | 0.00 | 58 | 990.0 |
| 20260906035005 | 87 | 159 | 5.0 | 7.0 | 0.00 | 0.00 | 0.00 | 58 | 990.0 |
| 20260906034502 | 87 | 175 | 5.0 | 9.0 | 0.00 | 0.00 | 0.00 | 57 | 990.0 |
| 20260906034446 | 87 | 164 | 6.0 | 9.0 | 0.00 | 0.00 | 0.00 | 57 | 990.1 |
| 20260906033504 | 88 | 172 | 6.0 | 9.0 | 0.00 | 0.00 | 0.00 | 57 | 990.1 |
| 20260906032959 | 88 | 170 | 6.0 | 12.0 | 0.00 | 0.00 | 0.00 | 56 | 990.1 |
| 20260906032502 | 88 | 173 | 8.0 | 12.0 | 0.00 | 0.00 | 0.00 | 56 | 990.1 |
| 20260906031957 | 88 | 145 | 8.0 | 12.0 | 0.00 | 0.00 | 0.00 | 56 | 990.0 |
| 20260906031940 | 88 | 149 | 7.0 | 12.0 | 0.00 | 0.00 | 0.00 | 56 | 990.1 |
| 20260906031002 | 88 | 153 | 6.0 | 12.0 | 0.00 | 0.00 | 0.00 | 55 | 990.0 |
| 20260906030639 | 89 | 173 | 8.0 | 13.0 | 0.00 | 0.00 | 0.00 | 54 | 990.0 |
| 20260906030533 | 89 | 159 | 7.0 | 12.0 | 0.00 | 0.00 | 0.00 | 55 | 990.0 |
| 20260906030013 | 89 | 160 | 7.0 | 13.0 | 0.00 | 0.00 | 0.00 | 54 | 990.0 |
| 20260906025445 | 90 | 151 | 9.0 | 12.0 | 0.00 | 0.00 | 0.00 | 52 | 989.9 |
| 20260906025206 | 90 | 161 | 9.0 | 12.0 | 0.00 | 0.00 | 0.00 | 53 | 990.0 |
| 20260906023955 | 90 | 154 | 7.0 | 12.0 | 0.00 | 0.00 | 0.00 | 52 | 989.8 |
| 20260906023455 | 89 | 160 | 5.0 | 12.0 | 0.00 | 0.00 | 0.00 | 52 | 989.7 |
| 20260906022959 | 89 | 141 | 3.0 | 9.0 | 0.00 | 0.00 | 0.00 | 51 | 989.4 |
| 20260906022456 | 89 | 146 | 2.0 | 4.0 | 0.00 | 0.00 | 0.00 | 50 | 989.3 |
| 20260906021955 | 89 | 151 | 2.0 | 3.0 | 0.00 | 0.00 | 0.00 | 49 | 989.2 |
| 20260906021924 | 89 | 143 | 2.0 | 3.0 | 0.00 | 0.00 | 0.00 | 49 | 989.1 |
| 20260906020955 | 89 | 143 | 1.0 | 3.0 | 0.00 | 0.00 | 0.00 | 49 | 989.1 |
| 20260906020452 | 89 | 143 | 2.0 | 3.0 | 0.00 | 0.00 | 0.00 | 49 | 989.1 |
| 20260906015958 | 89 | 143 | 2.0 | 3.0 | 0.00 | 0.00 | 0.00 | 48 | 988.8 |
| 20260906015440 | 89 | 142 | 2.0 | 3.0 | 0.00 | 0.00 | 0.00 | 48 | 988.9 |
| 20260906014938 | 89 | 142 | 2.0 | 3.0 | 0.00 | 0.00 | 0.00 | 48 | 988.9 |
| 20260906014445 | 90 | 142 | 1.0 | 3.0 | 0.00 | 0.00 | 0.00 | 48 | 988.8 |
| 20260906013939 | 89 | 142 | 1.0 | 2.0 | 0.00 | 0.00 | 0.00 | 48 | 988.7 |
| 20260906013441 | 90 | 142 | 1.0 | 2.0 | 0.00 | 0.00 | 0.00 | 48 | 988.7 |
| 20260906012937 | 90 | 142 | 2.0 | 2.0 | 0.00 | 0.00 | 0.00 | 47 | 988.7 |
| 20260906012438 | 90 | 142 | 2.0 | 2.0 | 0.00 | 0.00 | 0.00 | 47 | 988.6 |
| 20260906011934 | 91 | 142 | 1.0 | 2.0 | 0.00 | 0.00 | 0.00 | 47 | 988.6 |
| 20260906011434 | 91 | 142 | 1.0 | 2.0 | 0.00 | 0.00 | 0.00 | 46 | 988.6 |
| 20260906010931 | 91 | 142 | 1.0 | 2.0 | 0.00 | 0.00 | 0.00 | 47 | 988.5 |
| 20260906010426 | 91 | 142 | 2.0 | 3.0 | 0.00 | 0.00 | 0.00 | 46 | 988.4 |
| 20260906005925 | 92 | 142 | 2.0 | 3.0 | 0.00 | 0.00 | 0.00 | 46 | 988.5 |
| 20260906005424 | 92 | 142 | 2.0 | 3.0 | 0.00 | 0.00 | 0.00 | 45 | 988.5 |
| 20260906005323 | 92 | 142 | 3.0 | 6.0 | 0.00 | 0.00 | 0.00 | 45 | 988.4 |
| 20260906004415 | 93 | 146 | 3.0 | 6.0 | 0.00 | 0.00 | 0.00 | 44 | 988.5 |
| 20260906003919 | 94 | 135 | 4.0 | 7.0 | 0.00 | 0.00 | 0.00 | 43 | 988.4 |
| 20260906003415 | 94 | 119 | 4.0 | 7.0 | 0.00 | 0.00 | 0.00 | 43 | 988.4 |
| 20260906002912 | 94 | 139 | 3.0 | 7.0 | 0.00 | 0.00 | 0.00 | 43 | 988.4 |
| 20260906002415 | 95 | 150 | 3.0 | 7.0 | 0.00 | 0.00 | 0.00 | 42 | 988.5 |
| 20260906002343 | 95 | 113 | 4.0 | 8.0 | 0.00 | 0.00 | 0.00 | 42 | 988.5 |
| 20260906001413 | 95 | 111 | 5.0 | 9.0 | 0.00 | 0.00 | 0.00 | 41 | 988.4 |
| 20260906000932 | 96 | 105 | 7.0 | 10.0 | 0.00 | 0.00 | 0.00 | 41 | 988.5 |
| 20260906000915 | 96 | 148 | 7.0 | 10.0 | 0.00 | 0.00 | 0.00 | 41 | 988.5 |
| 20260905235909 | 96 | 122 | 6.0 | 10.0 | 0.00 | 0.00 | 0.00 | 41 | 988.4 |
| 20260905235410 | 96 | 107 | 6.0 | 8.0 | 0.00 | 0.00 | 0.00 | 40 | 988.4 |
| 20260905234909 | 96 | 116 | 6.0 | 9.0 | 0.00 | 0.00 | 0.00 | 39 | 988.5 |
| 20260905234411 | 97 | 103 | 6.0 | 9.0 | 0.00 | 0.00 | 0.00 | 39 | 988.5 |
| 20260905234404 | 97 | 109 | 6.0 | 11.0 | 0.00 | 0.00 | 0.00 | 39 | 988.4 |
| 20260905233414 | 97 | 104 | 6.0 | 11.0 | 0.00 | 0.00 | 0.00 | 39 | 988.3 |
| 20260905233402 | 97 | 135 | 6.0 | 10.0 | 0.00 | 0.00 | 0.00 | 38 | 988.2 |
| 20260905232857 | 97 | 107 | 6.0 | 10.0 | 0.00 | 0.00 | 0.00 | 39 | 988.2 |
| 20260905231910 | 97 | 109 | 6.0 | 10.0 | 0.00 | 0.00 | 0.00 | 39 | 988.3 |
| 20260905231405 | 97 | 122 | 5.0 | 10.0 | 0.00 | 0.00 | 0.00 | 39 | 988.4 |
| 20260905230901 | 97 | 107 | 3.0 | 8.0 | 0.00 | 0.00 | 0.00 | 39 | 988.3 |
| 20260905230402 | 97 | 128 | 5.0 | 10.0 | 0.00 | 0.00 | 0.00 | 38 | 988.3 |
| 20260905225903 | 98 | 159 | 5.0 | 10.0 | 0.00 | 0.00 | 0.00 | 39 | 988.3 |
| 20260905225402 | 98 | 118 | 4.0 | 9.0 | 0.00 | 0.00 | 0.00 | 38 | 988.3 |
| 20260905224900 | 98 | 136 | 5.0 | 9.0 | 0.00 | 0.00 | 0.00 | 37 | 988.3 |
| 20260905224357 | 98 | 137 | 4.0 | 9.0 | 0.00 | 0.00 | 0.00 | 37 | 988.3 |
| 20260905224345 | 98 | 111 | 6.0 | 14.0 | 0.00 | 0.00 | 0.00 | 37 | 988.2 |
| 20260905223353 | 98 | 92 | 7.0 | 14.0 | 0.00 | 0.00 | 0.00 | 36 | 988.2 |
| 20260905222848 | 98 | 96 | 6.0 | 13.0 | 0.00 | 0.00 | 0.00 | 37 | 988.2 |
| 20260905222420 | 98 | 117 | 7.0 | 13.0 | 0.00 | 0.00 | 0.00 | 37 | 988.4 |
| 20260905222349 | 98 | 113 | 7.0 | 13.0 | 0.00 | 0.00 | 0.00 | 37 | 988.3 |
| 20260905221345 | 98 | 155 | 5.0 | 13.0 | 0.00 | 0.00 | 0.00 | 38 | 988.3 |
| 20260905220842 | 98 | 112 | 4.0 | 7.0 | 0.00 | 0.00 | 0.00 | 39 | 988.3 |